{"data":{"norad_id":62798,"epoch":"2026-05-25T03:20:28.525056Z","epoch_age_seconds":60054,"freshness":"FRESH","line1":"1 62798U 25016P   26145.13921904  .00000104  00000+0  14260-3 0  9993","line2":"2 62798  88.9730  86.1476 0013010 226.9664 133.0398 13.51012210 69302","mean_motion":13.5101221,"eccentricity":0.001301,"inclination_deg":88.973,"raan_deg":86.1476,"arg_perigee_deg":226.9664,"mean_anomaly_deg":133.0398,"bstar":0.0001426,"rev_number":6930,"period_min":106.58674950095,"perigee_km":1058.8485953565,"apogee_km":1078.2248403703,"semimajor_km":7446.6737178634,"source":"CELESTRAK","updated_at":"2026-05-25T13:38:03.277634Z"}}